This demonstration page uses our WeatherBlox Daily Observations layout. Learn more.

Left ArrowRight Arrow

41.86663, -103.66717

Hourly Observations for March 28, 2018

Temp ( °F °C ) Dew Point ( °F °C ) Humidity (%) Winds ( mph kmh ) Pressure ( in mb ) Visibility ( mi km ) Precip ( " mm )
12:53 am 00:53 Clear 41 5 28 -2.2 60 60 S 3 6 29.82 1010 10 16 N/A
1:53 am 01:53 Clear 34 1.1 25 -3.9 70 70 N 6 9 29.82 1010 10 16 N/A
2:53 am 02:53 Clear 34 1.1 25 -3.9 70 70 WNW 8 13 29.82 1010 10 16 N/A
3:53 am 03:53 Clear 33 0.6 25 -3.9 72 72 NW 9 15 29.83 1010 10 16 N/A
4:53 am 04:53 Cloudy 44 6.7 30 -1.1 58 58 N 21 33 29.81 1010 10 16 N/A
5:53 am 05:53 Cloudy 42 5.6 32 undefined 68 68 NW 10 17 29.87 1012 10 16 N/A
6:53 am 06:53 Cloudy 41 5 34 1.1 76 76 WNW 13 20 29.91 1013 10 16 N/A
7:18 am 07:18 Cloudy with Light Rain 41 5 36 2 81 81 NNW 9 15 29.97 1015 10 16 N/A
7:53 am 07:53 Cloudy with Light Rain 40 4.4 36 2.2 86 86 NNW 7 11 29.95 1014 7 11 0.02 0.51
8:14 am 08:14 Cloudy with Light Rain 39 4 37 3 93 93 W 7 11 29.97 1015 10 16 N/A
8:53 am 08:53 Cloudy 40 4.4 37 2.8 89 89 WNW 10 17 29.96 1015 10 16 N/A
9:53 am 09:53 Cloudy with Light Rain 41 5 37 2.8 86 86 WNW 10 17 29.97 1015 10 16 N/A
10:53 am 10:53 Cloudy 43 6.1 37 2.8 80 80 WNW 10 17 29.97 1015 10 16 N/A
11:22 am 11:22 Mostly Cloudy 46 8 37 3 71 71 NW 15 24 29.94 1014 10 16 N/A
11:32 am 11:32 Mostly Cloudy 46 8 37 3 71 71 WNW 14 22 29.94 1014 10 16 N/A
11:53 am 11:53 Mostly Cloudy 47 8.3 36 2.2 66 66 WNW 13 20 29.94 1014 10 16 N/A
12:53 pm 12:53 Mostly Cloudy 49 9.4 33 0.6 55 55 NW 15 24 29.94 1014 10 16 N/A
1:53 pm 13:53 Cloudy with Light Rain 47 8.3 32 undefined 56 56 NW 12 19 29.95 1014 10 16 N/A
2:53 pm 14:53 Partly Cloudy 51 10.6 34 1.1 52 52 WNW 16 26 29.91 1013 10 16 N/A
3:53 pm 15:53 Sunny 51 10.6 28 -2.2 41 41 NNW 12 19 29.91 1013 10 16 N/A
4:53 pm 16:53 Sunny 51 10.6 19 -7.2 28 28 NNW 7 11 29.88 1012 10 16 N/A
5:48 pm 17:48 Mostly Cloudy 48 9 30 -1 50 50 E 12 19 29.91 1013 10 16 N/A
5:53 pm 17:53 Mostly Cloudy 48 8.9 31 -0.6 52 52 ENE 14 22 29.91 1013 10 16 N/A
6:53 pm 18:53 Sunny 46 7.8 28 -2.2 50 50 E 12 19 29.93 1014 10 16 N/A
7:53 pm 19:53 Clear 38 3.3 32 undefined 79 79 SE 5 7 29.99 1016 10 16 N/A
8:53 pm 20:53 Mostly Cloudy 37 2.8 31 -0.6 79 79 ENE 6 9 30.02 1017 10 16 N/A
9:53 pm 21:53 Mostly Cloudy 34 1.1 30 -1.1 85 85 E 6 9 30.04 1017 10 16 N/A
10:53 pm 22:53 Cloudy 35 1.7 31 -0.6 85 85 SE 3 6 30.03 1017 10 16 N/A
11:53 pm 23:53 Cloudy 31 -0.6 29 -1.7 92 92 N 3 6 30.04 1017 10 16 N/A

Powered by AerisWeather